Regional Weather Roundup
Issued by NWS New Orleans/Baton Rouge, LA

Home | Current Version | Previous Version | Text Only | Print | Product List | Glossary Off
Versions: 1 2 3 4 5 6 7 8 9 10 11 12 13 14 15 16 17 18 19 20 21 22 23 24 25 26 27 28 29 30 31 32 33 34 35 36 37 38 39 40 41 42 43 44 45 46 47 48 49 50

497
ASUS44 KLIX 311210
RWRLIX
NEW ORLEANS REGIONAL WEATHER ROUNDUP
NATIONAL WEATHER SERVICE NEW ORLEANS LA
600 AM CST SAT JAN 31 2015

NOTE: "FAIR" INDICATES FEW OR NO CLOUDS BELOW 12,000 FEET WITH NO
      SIGNIFICANT WEATHER AND/OR OBSTRUCTIONS TO VISIBILITY.
      SKY/WX - SKY CONDITION AND SIGNIFICANT WEATHER.
      TMP - AIR TEMPERATURE.     DP    - DEWPOINT TEMPERATURE.
      RH  - RELATIVE HUMIDITY.   PRES  - PRESSURE.
      HI  - HEAT INDEX.          WCI   - WIND CHILL INDEX.

*  THESE STATIONS ARE NOT NWS OR FAA STATIONS AND ARE NOT UNDER
   NWS QUALITY CONTROL.

LAZ038-040-048-061>063-065>067-069-311300-
SOUTHEAST LOUISIANA

CITY           SKY/WX    TMP DP  RH WIND       PRES   REMARKS
N.O. AUDUBON     N/A     46  38  73 MISG        N/A
6HR MIN TEMP:  46; 6HR MAX TEMP:  53; 6HR PCP:  4.55;

N.O. INTL ARPT PTCLDY    45  34  65 E7        30.29R
6HR MIN TEMP:  45; 6HR MAX TEMP:  52;

N.O. LAKEFRONT CLEAR     48  37  65 E15       30.30R
6HR MIN TEMP:  48; 6HR MAX TEMP:  54;

N.O. DOWNTOWN* NOT AVBL
SLIDELL        CLEAR     34  30  85 N3        30.30R
6HR MIN TEMP:  34; 6HR MAX TEMP:  41;

BATON ROUGE    CLEAR     37  30  75 E8        30.29R WCI  31
6HR MIN TEMP:  36; 6HR MAX TEMP:  42;

BOOTHVILLE     CLEAR     51  44  77 NE7       30.28R
6HR MIN TEMP:  51; 6HR MAX TEMP:  53;

BELLE CHASSE   PTCLDY    43  35  73 NE7       30.28S
6HR MIN TEMP:  37; 6HR MAX TEMP:  46;

BOGALUSA*        N/A     32  29  89 CALM      30.32R
6HR MIN TEMP:  32; 6HR MAX TEMP:  37;

GALLIANO*      SUNNY     51  43  74 NE3       30.27S
6HR MIN TEMP:  51; 6HR MAX TEMP:  53;

NEW ROADS*       N/A     40  30  68 E7        30.29R WCI  35
6HR MIN TEMP:  40; 6HR MAX TEMP:  42;

GONZALES*        N/A     40  34  77 CALM      30.28S
6HR MIN TEMP:  40; 6HR MAX TEMP:  46;

HAMMOND*       CLEAR     34  32  93 CALM      30.32R
HOUMA*         CLEAR     41  37  87 NE6       30.27S
PORT FOURCHON* SUNNY     54  46  76 NE12      30.28S

$$

MSZ070-080>082-311300-
SOUTHERN MISSISSIPPI

CITY           SKY/WX    TMP DP  RH WIND       PRES   REMARKS
MCCOMB         CLEAR     37  27  67 E3        30.30R
6HR MIN TEMP:  37; 6HR MAX TEMP:  43;

GULFPORT       CLEAR     39  29  67 NE5       30.30R
6HR MIN TEMP:  39; 6HR MAX TEMP:  44;

BILOXI         CLEAR     38  30  70 NE8       30.30R WCI  33
6HR MIN TEMP:  38; 6HR MAX TEMP:  44;

PASCAGOULA     CLEAR     29  29 100 N3        30.31R
6HR MIN TEMP:  29; 6HR MAX TEMP:  40;


$$

COASTAL OBSERVATIONS
LAKE AND NEARSHORE STATIONS

STATION/POSITION TIME  TEMP    WIND        PRES    WAVE
                       AIR SEA DIR/SP/G            HT/PER
                 (UTC) (F)     (DEG/KT/KT) (MB)    (FT/S)
PASCAGOULA       1200   41      60/  9/ 13 1025.5
WAVELAND YACHT   1200   42      60/  9/ 12 1025.0
GRAND ISLE       1200   54 61   70/ 12/ 16 1025.0
SOUTHWEST PASS   1200   51 45   50/ 10/ 12 1024.6
NEW CANAL        1200   48 54   70/ 13/ 15 1025.8
SHELL BEACH      1200   50 55   70/ 13/ 15 1025.3

OFFSHORE STATIONS

STATION/POSITION TIME  TEMP    WIND        PRES    WAVE
                       AIR SEA DIR/SP/G            HT/PER
                 (UTC) (F)     (DEG/KT/KT) (MB)    (FT/S)
64 S DAUPHIN ISL 1103   59 68   80/ 17/ 21 1024.6    4/ 5

$$




USA.gov is the U.S. government's official web portal to all federal, state and local government web resources and services.